Location: Newark
(34.1333°N, 7.9667°W)
Time: 07:00:18
(UTC+00:00)

UKube-1 - Visible Passes

Search period start: 10 June 2023 00:00
Search period end: 20 June 2023 00:00
Orbit: 601 x 606 km, 98.3° (Epoch: 09 June)

Date Brightness Start Highest point End Pass type
(mag) Time Alt. Az. Time Alt. Az. Time Alt. Az.
10 Jun ? 00:20:26 10° N 00:22:21 25° NNW 00:22:21 25° NNW visible
11 Jun ? 00:32:43 10° N 00:34:37 23° NNW 00:34:37 23° NNW visible
11 Jun ? 23:09:41 10° NE 23:10:04 12° NE 23:10:04 12° NE visible
12 Jun ? 00:45:06 10° NNW 00:46:53 19° NW 00:46:53 19° NW visible
12 Jun ? 23:21:23 10° NE 23:22:19 15° NE 23:22:19 15° NE visible
13 Jun ? 00:57:38 10° NNW 00:59:08 16° NW 00:59:08 16° NW visible
13 Jun ? 23:33:13 10° NNE 23:34:33 19° NE 23:34:33 19° NE visible
14 Jun ? 01:10:25 10° NW 01:11:22 12° NW 01:11:22 12° NW visible
14 Jun ? 23:45:09 10° NNE 23:46:47 22° NNE 23:46:47 22° NNE visible
15 Jun ? 23:57:09 10° NNE 23:59:00 25° NNE 23:59:00 25° NNE visible
17 Jun ? 00:09:14 10° N 00:11:13 27° N 00:11:13 27° N visible
18 Jun ? 00:21:22 10° N 00:23:25 26° NNW 00:23:25 26° NNW visible
19 Jun ? 00:33:36 10° N 00:35:36 24° NNW 00:35:36 24° NNW visible
19 Jun ? 23:10:35 10° NE 23:10:58 12° NE 23:10:58 12° NE visible
